Location: Recife
(8.0585°S, 34.8848°W)
Time: 21:08:17
(UTC-03:00)

A-11 Canister half - Pass Details

Date: 19 April 2026
Orbit: 1515 x 1684 km, 47.2° (Epoch: 16 May)

Event Time Altitude Azimuth Distance (km) Brightness Sun altitude
Rises 11:06:20 0° 354° (N) 4,840 11.9 70.4°
Reaches altitude 10° 11:10:50 10° 11° (N) 3,884 11.6 70.5°
Maximum altitude 11:17:10 19° 51° (NE) 3,280 11.2 70.6°
Drops below altitude 10° 11:23:32 10° 91° (E) 3,942 11.3 70.6°
Sets 11:28:04 0° 108° (ESE) 4,938 11.6 70.5°
